ICEYE-X13

导读 | 星芒AI

ICEYE-X13 是 ICEYE 公司发射的一颗合成孔径雷达(SAR)成像卫星,具备高分辨率和全天候、全天时成像能力。该卫星采用小型卫星平台,搭载先进的 SAR 传感器,可提供亚米级分辨率的地球观测数据。ICEYE-X13 用于支持灾害监测、环境管理、安全与国防等应用,增强了 ICEYE 卫星星座的覆盖能力和数据获取频率,为用户提供更及时、可靠的遥感服务。

基本信息
目录编号:
48916
目录名称:
ICEYE-X13
国际标识:
2021-059AP
轨道中心:
EARTH
卫星名称:
ICEYE-X13
卫星全名:
--
卫星状态:
已陨落 最后检测时间 2025-11-24
发射日期:
2021-06-30 UTC
国别 :
(FI)
星等 :
--
轨道信息
数据来源 国际轨道数据
星历时间: 2025-11-24T17:20:00+0800
轨道信息已过期21天
半长轴: 6525.364km
偏心率: 0.0004928
轨道倾角: 97.612°
近地点辐角 291.438°
升交点赤经 147.704°
平近点角 68.639°
近地点: 144.013km
远地点: 150.445km
周期: 87.431分钟
每日圈数: 16.470078
详细信息
使用方式:
暂无